Regional Weather Roundup
Issued by NWS State College, PA

Home | Current Version | Previous Version | Graphics & Text | Print | Product List | Glossary Off
Versions: 1 2 3 4 5 6 7 8 9 10 11 12 13 14 15 16 17 18 19 20 21 22 23 24 25 26 27 28 29 30 31 32 33 34 35 36 37 38 39 40 41 42 43 44 45 46 47 48 49 50

000
ASUS41 KCTP 270510
RWRCTP

REGIONAL WEATHER ROUNDUP
NATIONAL WEATHER SERVICE STATE COLLEGE PA
100 AM EDT WED MAY 27 2015

Note: "fair" indicates few or no clouds below 12,000 feet with no
significant weather and/or obstructions to visibility.

* = STATION THAT DOES NOT REPORT PRECIPITATION /E.G. RAIN...SNOW...ETC/
    THUNDER OR FOG.

PAZ002>004-007>009-013>016-020>023-029>032-270600-
WESTERN PENNSYLVANIA

CITY           SKY/WX    TMP DP  RH WIND       PRES   REMARKS
ERIE           LGT RAIN  71  66  84 SW12      30.00R
MEADVILLE      CLOUDY    70  63  78 SW12G20   30.05R
FRANKLIN*      CLOUDY    70  61  73 S14       30.09R
NEW CASTLE     LGT RAIN  70  66  88 CALM      30.07S
BEAVER COUNTY  NOT AVBL
BUTLER*        CLOUDY    66  61  82 SW7       30.11R
PITTSBURGH INT TSTM      68  62  81 W16G24    30.10R VSB 1
PITTSBURGH     CLOUDY    72  60  66 CALM      30.08R
INDIANA*       CLEAR     72  64  78 S6        30.13S
LATROBE        CLOUDY    73  64  73 S7        30.11S
WASHINGTON CO* CLOUDY    66  63  88 W15G23    30.14R
$$

PAZ004>006-010>012-017>019-024>028-033>037-041-042-045-046-049>053-270600-
CENTRAL PENNSYLVANIA

CITY           SKY/WX    TMP DP  RH WIND       PRES   REMARKS
BRADFORD       CLEAR     67  62  84 VRB5      30.11F
DUBOIS         CLEAR     70  63  78 S5        30.10S
CLEARFIELD     CLEAR     64  62  93 N5        30.11F
JOHNSTOWN      CLEAR     68  61  78 S9        30.15S
ALTOONA        CLEAR     71  63  75 S9        30.14R
STATE COLLEGE  CLEAR     71  64  76 SW5       30.11F
WILLIAMSPORT   CLEAR     73  65  75 S7G17     30.08F
SELINSGROVE    CLEAR     75  66  73 S7        30.11F
FT INDIANTOWN  PTCLDY    70  66  85 VRB2      30.15S
CAPITAL CITY   PTCLDY    74  65  73 S8        30.13S
HARRISBURG     PTCLDY    74  65  73 S8        30.13S
YORK           PTCLDY    72  66  81 VRB6      30.14S
$$

PAZ038>040-043-044-047-048-054-055-060>062-067>071-270600-
EASTERN PENNSYLVANIA

CITY           SKY/WX    TMP DP  RH WIND       PRES   REMARKS
SCRANTON       CLEAR     73  64  73 SW5       30.13F
MOUNT POCONO   PTCLDY    68  63  84 SW9       30.19F
ALLENTOWN      CLEAR     75  64  68 SW12      30.15F
QUAKERTOWN*    CLEAR     72  66  83 SW3       30.18S
READING        CLEAR     73  64  73 S8        30.14F
LANCASTER      CLOUDY    72  65  78 S8        30.15S
COATESVILLE    CLEAR     70  64  83 CALM      30.18F
POTTSTOWN      CLEAR     73  64  73 VRB6      30.18S
BLUE BELL      CLEAR     72  64  78 S6        30.17F
DOYLESTOWN     CLEAR     71  63  75 VRB6      30.16F
WILLOW GROVE   NOT AVBL
NORTH PHILA    CLEAR     73  62  68 S6        30.19S
PHILADELPHIA   PTCLDY    73  64  73 S8        30.18S
$$



USA.gov is the U.S. government's official web portal to all federal, state and local government web resources and services.